{"data":{"norad_id":58638,"intl_designator":"2023-203W","name":"STARLINK-31078","alt_names":[],"object_type":"PAYLOAD","status":"ACTIVE","operator":null,"country":"US","launch_date":"2023-12-23","launch_site_code":"AFETR","launch_vehicle":null,"mission":null,"orbit_class":"UNKNOWN","rcs_meters":null,"size_class":null,"mass_kg":null,"dimensions":null,"purposes":["comms"],"wikipedia_slug":null,"has_3d_model":false,"image_url":null,"decayed_at":null,"tle_current":{"epoch":"2026-09-19T17:17:55.979520Z","epoch_age_seconds":217146,"freshness":"STALE","line1":"1 58638U 23203W   26262.72078680  .00000355  00000+0  22425-4 0  9997","line2":"2 58638  43.0033  51.5065 0000973 271.9654  88.1086 15.27579261153230","mean_motion":15.27579261,"eccentricity":9.73e-5,"inclination_deg":43.0033,"raan_deg":51.5065,"arg_perigee_deg":271.9654,"mean_anomaly_deg":88.1086,"bstar":2.2425e-5,"rev_number":15323,"period_min":94.266794317261,"perigee_km":482.38371524995,"apogee_km":483.71890249485,"semimajor_km":6861.1883088724,"source":"CELESTRAK","updated_at":"2026-09-21T09:00:33.941276Z"}}}